Location: Belloy
(55.7522°N, 118.2333°W)
Time: 23:34:32
(UTC+00:00)

Envisat - Pass Details

Date: 07 December 2021
Orbit: 764 x 766 km, 98.2° (Epoch: 27 January)

Event Time Altitude Azimuth Distance (km) Brightness Sun altitude
Rises 23:57:27 0° 171° (S) 3,224 6.6 -4.8°
Reaches altitude 10° 23:59:46 10° 174° (S) 2,302 5.9 -5.1°
Maximum altitude 00:04:49 67° 257° (WSW) 833 3.5 -5.7°
Drops below altitude 10° 00:09:55 10° 341° (NNW) 2,319 5.4 -6.3°
Sets 00:12:15 0° 344° (NNW) 3,249 6.1 -6.6°
